Location: Albany
(35.0000°S, 118.0000°E)
Time: 23:38:45
(UTC-04:00)

Cosmos 1933 - Visible Passes

Search period start: 24 July 2014 00:00
Search period end: 03 August 2014 00:00
Orbit: 557 x 572 km, 82.5° (Epoch: 23 July)

Date Brightness Start Highest point End Pass type
(mag) Time Alt. Az. Time Alt. Az. Time Alt. Az.
24 Jul 3.6 07:19:42 10° NNW 07:23:30 69° WNW 07:23:30 69° WNW visible
24 Jul 6.4 17:26:01 10° SE 17:28:27 15° ESE 17:30:51 10° ENE visible
25 Jul 3.9 07:20:06 10° NNW 07:24:08 57° W 07:25:16 41° SSW visible
25 Jul 6.2 17:25:54 10° SSE 17:28:51 19° ESE 17:31:46 10° ENE visible
26 Jul 5.3 05:47:23 10° E 05:48:15 11° E 05:49:07 10° ESE visible
26 Jul 4.5 07:20:33 10° NNW 07:24:29 44° W 07:27:04 20° SSW visible
26 Jul 5.8 17:25:54 10° SSE 17:29:14 23° ESE 17:32:32 10° NE visible
27 Jul 5.1 05:46:29 10° ENE 05:48:30 13° E 05:50:32 10° ESE visible
27 Jul 5.0 07:21:05 10° NW 07:24:50 35° W 07:28:38 10° SSW visible
27 Jul 5.4 17:26:00 10° SSE 17:29:37 29° ESE 17:33:11 10° NE visible
28 Jul 5.4 07:21:40 10° NW 07:25:12 28° WSW 07:28:47 10° SSW visible
28 Jul 5.0 17:26:09 10° SSE 17:29:59 36° E 17:33:46 10° NNE visible
29 Jul 5.8 07:22:20 10° NW 07:25:35 22° WSW 07:28:51 10° SSW visible
29 Jul 4.5 17:26:20 10° S 17:30:20 46° E 17:34:17 10° NNE visible
30 Jul 4.4 05:45:52 10° NNE 05:49:17 26° E 05:52:44 10° SSE visible
30 Jul 6.2 07:23:07 10° WNW 07:25:58 18° WSW 07:28:51 10° SSW visible
30 Jul 3.9 17:26:35 10° S 17:30:41 59° E 17:34:44 10° NNE visible
31 Jul 4.1 05:45:54 10° NNE 05:49:34 33° E 05:53:16 10° SSE visible
31 Jul 6.4 07:24:04 10° WNW 07:26:22 15° WSW 07:28:42 10° SW visible
31 Jul 3.5 17:26:52 10° S 17:31:01 76° E 17:35:07 10° N visible
01 Aug 3.8 05:46:00 10° NNE 05:49:51 41° E 05:53:45 10° SSE visible
01 Aug 6.6 07:25:19 10° W 07:26:47 12° WSW 07:28:15 10° SW visible
01 Aug 3.3 17:27:11 10° S 17:31:20 85° W 17:35:27 10° N visible
02 Aug 3.5 05:46:10 10° N 05:50:09 53° E 05:54:10 10° SSE visible
02 Aug 3.3 17:28:41 18° SSW 17:31:39 66° W 17:35:44 10° N visible
